This is the latest recevied weather packets stored in our database for station/object K5SVV. If no packets are shown the sender has not sent any weather packets the latest 10 day(s).
| Time | Temp. | Humidity | Pressure | Rain* | Wind** | Luminosity | Snow |
|---|---|---|---|---|---|---|---|
| 1777936421 | 25.56° C | 69% | 1006.8 hPa | 0 mm | - | 202 W/m² | - |
| 1777936117 | 25° C | 69% | 1006.7 hPa | 0 mm | - | 224 W/m² | - |
| 1777935815 | 25° C | 70% | 1006.7 hPa | 0 mm | - | 231 W/m² | - |
| 1777935514 | 25° C | 69% | 1006.8 hPa | 0 mm | - | 148 W/m² | - |
| 1777935210 | 25° C | 70% | 1006.9 hPa | 0 mm | - | 150 W/m² | - |
| 1777934907 | 25.56° C | 69% | 1007.1 hPa | 0 mm | - | 155 W/m² | - |
| 1777934604 | 25.56° C | 68% | 1007 hPa | 0 mm | - | 206 W/m² | - |
| 1777934301 | 25.56° C | 68% | 1007 hPa | 0 mm | - | 255 W/m² | - |
| 1777933996 | 25.56° C | 68% | 1006.9 hPa | 0 mm | - | 390 W/m² | - |
| 1777933693 | 25.56° C | 67% | 1007 hPa | 0 mm | - | 235 W/m² | - |
| 1777933390 | 26.11° C | 67% | 1007.1 hPa | 0 mm | - | 327 W/m² | - |
| 1777933089 | 25.56° C | 68% | 1006.9 hPa | 0 mm | - | 356 W/m² | - |
| 1777932785 | 25.56° C | 67% | 1006.9 hPa | 0 mm | - | 437 W/m² | - |
| 1777932482 | 25.56° C | 68% | 1007.3 hPa | 0 mm | - | 377 W/m² | - |
| 1777932178 | 25.56° C | 68% | 1007.6 hPa | 0 mm | - | 245 W/m² | - |
| 1777931876 | 26.11° C | 67% | 1007.4 hPa | 0 mm | - | 275 W/m² | - |
| 1777931572 | 26.67° C | 66% | 1007.3 hPa | 0 mm | - | 387 W/m² | - |
| 1777931268 | 26.11° C | 68% | 1007.3 hPa | 0 mm | - | 499 W/m² | - |
| 1777930965 | 25.56° C | 66% | 1007.4 hPa | 0 mm | - | 350 W/m² | - |
| 1777930662 | 25.56° C | 67% | 1007.3 hPa | 0 mm | - | 308 W/m² | - |
| 1777930358 | 26.11° C | 66% | 1007.4 hPa | 0 mm | - | 426 W/m² | - |
| 1777930055 | 26.11° C | 66% | 1007.5 hPa | 0 mm | - | 407 W/m² | - |
| 1777929751 | 26.11° C | 66% | 1007.8 hPa | 0 mm | - | 488 W/m² | - |
| 1777929449 | 25.56° C | 67% | 1007.9 hPa | 0 mm | - | 548 W/m² | - |
| 1777929145 | 25.56° C | 67% | 1007.9 hPa | 0 mm | - | 561 W/m² | - |
* Rain latest hour (hover to see other rain measurements)
** Current wind speed in m/s (hover to see current wind gust speed)